Regional Weather Roundup
Issued by NWS

Home | Current Version | Previous Version | Text Only | Print | Product List | Glossary On
Versions: 1 2 3 4 5 6 7 8 9 10 11 12 13 14 15 16 17 18 19 20 21 22 23 24 25 26 27 28 29 30 31 32 33 34 35 36 37 38 39 40 41 42 43 44 45 46 47 48 49 50
000
ASUS43 KLSX 230610
RWRMO

WEATHER SUMMARY FOR MISSOURI
NATIONAL WEATHER SERVICE SPRINGFIELD MO
100 AM CDT FRI JUN 23 2017

NOTE: "FAIR" INDICATES FEW OR NO CLOUDS BELOW 12,000 FEET WITH NO
       SIGNIFICANT WEATHER AND/OR OBSTRUCTIONS TO VISIBILITY.
       CURRENT SKY AND/OR WEATHER CONDITIONS ARE NOT AVAILABLE FOR
       CHILLICOTHE AND FARMINGTON.

MOZ001>031-035>038-043-044-053-054-230700-
...NORTHERN AND WESTERN MISSOURI...

CITY           SKY/WX    TMP DP  RH WIND       PRES   REMARKS
KANSAS CTY INT CLEAR     74  72  93 S8        29.72R
6HR MIN TEMP:  74; 6HR MAX TEMP:  84;

KANSAS C DTWN  CLEAR     80  74  81 S6        29.71R
6HR MIN TEMP:  80; 6HR MAX TEMP:  87;

LEE`S SUMMIT   CLEAR     77  74  90 S6        29.72S
6HR MIN TEMP:  77; 6HR MAX TEMP:  85;

ST JOSEPH      CLOUDY    76  74  93 S3        29.71R
6HR MIN TEMP:  75; 6HR MAX TEMP:  86;

CHILLICOTHE      N/A     75  73  93 CALM      29.72R
6HR MIN TEMP:  75; 6HR MAX TEMP:  85;

KIRKSVILLE     CLEAR     73  71  93 SW3       29.73R
6HR MIN TEMP:  73; 6HR MAX TEMP:  83;


$$
MOZ066>068-077>081-088>096-101>105-230700-
...SOUTHWEST MISSOURI...

CITY           SKY/WX    TMP DP  RH WIND       PRES   REMARKS
SPRINGFIELD    CLOUDY    74  72  93 S6        29.74S
6HR MIN TEMP:  74; 6HR MAX TEMP:  84;

JOPLIN         MOCLDY    77  74  90 CALM      29.73R
6HR MIN TEMP:  75; 6HR MAX TEMP:  85;

BRANSON        PTCLDY    72  72 100 CALM      29.75R

$$
MOZ032>034-039>042-045>050-055>058-069>072-230700-
...CENTRAL MISSOURI...

CITY           SKY/WX    TMP DP  RH WIND       PRES   REMARKS
COLUMBIA       CLEAR     74  73  97 S3        29.73R
6HR MIN TEMP:  74; 6HR MAX TEMP:  83;

JEFFERSON CITY CLEAR     77  72  84 E5        29.71S
6HR MIN TEMP:  77; 6HR MAX TEMP:  85;

ROLLA          PTCLDY    73  71  93 S8        29.74S
6HR MIN TEMP:  73; 6HR MAX TEMP:  83;

SEDALIA        PTCLDY    74  74 100 SE5       29.73S
6HR MIN TEMP:  74; 6HR MAX TEMP:  84;

WHITEMAN AFB   PTCLDY    75  75 100 S3        29.71S
WARRENSBURG    PTCLDY    73  70  88 SE6       29.71S
OSAGE BEACH    CLOUDY    76  72  87 CALM      29.74R

$$
MOZ051-052-059>065-230700-
...EAST CENTRAL MISSOURI...

CITY           SKY/WX    TMP DP  RH WIND       PRES   REMARKS
ST LOUIS INTL  MOCLDY    80  74  81 S8        29.73F
6HR MIN TEMP:  80; 6HR MAX TEMP:  86;

SPIRIT OF STL  PTCLDY    77  75  93 CALM      29.72S
6HR MIN TEMP:  77; 6HR MAX TEMP:  84;

ST CHARLES     PTCLDY    77  75  93 MISG      29.71F
6HR MIN TEMP:  77; 6HR MAX TEMP:  84;


$$
MOZ072>076-082>087-097>100-106>115-230700-
...SOUTH CENTRAL AND SOUTHEAST MISSOURI...

CITY           SKY/WX    TMP DP  RH WIND       PRES   REMARKS
CAPE GIRARDEAU LGT RAIN  77  73  87 S8        29.74F
6HR MIN TEMP:  77; 6HR MAX TEMP:  81; 6HR PCP:  0.10;

FARMINGTON     CLOUDY    74  73  97 S8        29.76S
6HR MIN TEMP:  74; 6HR MAX TEMP:  80; 6HR PCP: TRACE;

POPLAR BLUFF   CLOUDY    77  75  93 S9        29.73F
6HR MIN TEMP:  75; 6HR MAX TEMP:  79; 6HR PCP:  0.37;

WEST PLAINS    CLOUDY    75  72  90 SE6       29.75F
6HR MIN TEMP:  74; 6HR MAX TEMP:  83;


$$




USA.gov is the U.S. government's official web portal to all federal, state and local government web resources and services.